Terminal Aerodrome Forecast
Issued by NWS Mobile, AL

Home | Current Version | Previous Version | Text Only | Print | Product List | Glossary On
Versions: 1 2 3 4 5 6 7 8 9 10 11 12 13 14 15 16 17 18 19 20 21 22 23 24 25 26 27
000
FTUS44 KMOB 281732
TAFMOB
TAF
KMOB 281732Z 2818/2918 16014G24KT P6SM BKN015 OVC040
     FM290300 14013G20KT P6SM BKN007 OVC015
     FM291500 14017G28KT P6SM SCT015 OVC025=

USA.gov is the U.S. government's official web portal to all federal, state and local government web resources and services.